GFSCGP_850_dewp_114.txt.gz
Dewpoint
-5 -2 -1 -3 -3 -4 -4 -3 -3 -4 -6 -5 -5 -7 -7 -8 -9 -9 -8 -9 -10 -10 -3 2 4 5 5 5 6 6 6 7 7 5 5 7 4 7 10 12 13 13 13 13
-5 -1 -3 -4 -4 -4 -4 -3 -3 -5 -7 -6 -6 -7 -9 -9 -9 -10 -9 -9 -10 -10 -0 3 3 4 4 4 4 4 4 5 5 6 7 6 6 3 5 9 11 11 13 13
-1 -3 -6 -6 -6 -6 -6 -5 -3 -5 -8 -7 -6 -6 -7 -8 -8 -9 -9 -10 -6 -4 2 2 2 2 3 3 3 4 4 4 3 4 3 5 6 5 1 4 8 11 12 12
-2 -5 -5 -4 -4 -5 -4 -5 -4 -5 -4 -1 -6 -2 -5 -8 -10 -10 -10 -2 1 2 1 1 2 2 2 2 2 3 3 3 3 2 1 2 4 5 5 6 6 8 10 9
0 -2 -3 -1 -1 -3 -2 -4 -2 -2 -0 1 -3 -2 -5 -8 -9 -9 -3 2 2 2 2 1 1 1 1 1 2 2 2 2 2 1 2 2 2 3 2 3 4 4 7 10
-1 -3 -3 -2 -1 -2 -7 -6 -3 -1 -2 2 -2 -3 -4 -7 -6 -7 2 2 2 2 1 1 0 0 0 0 1 1 1 1 1 1 2 2 3 3 3 3 2 2 2 8
-1 -3 -4 -3 -1 -5 -5 -3 -0 5 3 2 -5 -4 -5 5 2 4 3 1 1 -0 -0 -1 -1 -1 -0 -0 -0 0 1 1 0 1 1 2 3 4 4 4 4 4 3 3
-1 2 -4 -4 -2 -2 -4 -2 4 4 3 2 4 3 3 3 4 3 1 -0 -1 -2 -2 -1 -1 -1 -1 -1 -1 -0 -1 -1 -0 1 2 2 3 3 4 4 5 5 5 3
0 0 -3 -4 -4 -5 -2 -0 -1 3 3 3 1 3 6 2 2 0 -1 -1 -2 -3 -3 -3 -2 -2 -1 -1 -1 -1 -1 -1 -0 1 1 2 2 3 4 4 5 6 7 5
-3 0 1 -2 -7 -7 -7 -8 -0 5 7 3 -2 -3 5 5 3 1 -1 -2 -3 -4 -4 -3 -3 -2 -2 -2 -2 -2 -2 -2 -1 -0 0 1 2 2 3 4 5 6 7 7
-4 0 2 -1 -3 -4 -5 -6 -6 -3 -2 5 1 -0 4 5 4 3 -2 -3 -4 -4 -4 -3 -3 -2 -2 -3 -3 -3 -3 -2 -2 -1 -1 -0 1 2 3 3 5 7 7 8
-0 1 3 0 -5 -8 -7 -5 -4 -0 -2 -2 -2 -2 2 3 1 -2 -3 -4 -4 -4 -4 -3 -3 -3 -3 -3 -3 -3 -3 -4 -2 -1 -1 -0 0 2 3 4 7 8 9 10
0 3 2 -1 -1 -6 -6 -6 -7 -4 -2 -1 1 -2 -0 -2 -4 -3 -3 -3 -4 -3 -3 -3 -3 -3 -3 -3 -4 -4 -4 -4 -3 -2 -2 -1 0 2 3 4 6 8 8 9
-2 -0 1 3 -1 -6 -3 -6 -8 -5 0 -2 -3 -5 -6 -1 -4 -7 -4 -3 -4 -3 -3 -3 -3 -3 -4 -5 -5 -5 -5 -5 -4 -3 -3 -1 -1 -1 1 3 4 6 7 7
-4 -2 -3 -4 -7 -8 -10 -10 -8 -8 -6 -2 -2 -3 -5 -8 -5 -4 -4 -4 -4 -4 -4 -4 -4 -4 -5 -5 -5 -6 -6 -6 -5 -4 -4 -3 -1 -1 1 2 3 6 6 6
-4 -0 -3 -3 -7 -9 -9 -11 -12 -11 -10 -9 -9 -7 -10 -10 -3 -2 -3 -3 -3 -4 -4 -4 -5 -5 -5 -6 -6 -6 -6 -6 -6 -6 -5 -4 -2 -1 -0 0 2 3 5 7
-2 -2 -3 -3 -8 -10 -8 -9 -11 -11 -12 -11 -5 -6 -2 -1 -0 -2 -3 -4 -4 -4 -5 -6 -6 -6 -6 -6 -6 -6 -7 -6 -7 -6 -5 -5 -4 -3 -2 -1 0 1 1 3
-4 -3 -4 -3 -6 -4 -10 -5 -4 -4 -5 -4 -2 -1 -1 -2 -3 -4 -4 -4 -5 -5 -6 -6 -6 -6 -5 -5 -6 -6 -6 -6 -6 -6 -5 -5 -5 -5 -4 -3 -2 -1 -0 0
-7 -5 -3 -3 -5 -8 -7 -0 -1 -1 -4 -3 -2 -2 -2 -3 -4 -4 -5 -5 -6 -6 -7 -7 -7 -6 -5 -6 -6 -6 -5 -5 -6 -6 -6 -5 -5 -5 -5 -5 -4 -4 -3 -2
-11 -8 -3 -5 -3 -3 1 -2 -4 -4 -1 -4 -4 -2 -2 -3 -0 -4 -6 -6 -6 -7 -7 -7 -7 -6 -6 -6 -6 -6 -6 -6 -6 -6 -5 -5 -4 -5 -5 -5 -5 -5 -4 -3
-4 -5 -4 -3 -2 1 -2 -3 -3 1 -1 -4 -4 -3 -0 -2 -4 -6 -6 -7 -7 -6 -6 -7 -9 -15 -15 -16 -13 -13 -12 -12 -14 -13 -10 -7 -5 -4 -4 -4 -4 -4 -4 -4
-2 -2 -1 -2 1 1 -4 -2 -1 -2 -3 -4 -2 -3 -4 -5 -6 -6 -6 -7 -7 -7 -7 -7 -9 -10 -10 -12 -14 -15 -16 -14 -16 -21 -27 -26 -26 -26 -25 -21 -16 -10 -5 -4
1 1 3 0 1 -4 -4 -4 -3 -3 -3 -4 -4 -5 -5 -6 -7 -7 -7 -7 -7 -8 -8 -10 -10 -10 -10 -12 -11 -10 -11 -14 -12 -12 -12 -15 -26 -31 -33 -33 -31 -31 -32 -30
-1 -2 0 -1 -3 -4 -4 -4 -4 -4 -4 -5 -5 -6 -6 -7 -7 -7 -7 -7 -8 -8 -10 -11 -11 -10 -11 -11 -13 -11 -10 -10 -14 -13 -12 -12 -10 -15 -25 -32 -34 -34 -33 -30
-2 -4 -2 -2 -4 -4 -4 -4 -4 -5 -6 -6 -6 -6 -7 -7 -7 -8 -8 -8 -8 -9 -11 -11 -11 -11 -11 -15 -18 -20 -19 -13 -12 -15 -15 -15 -15 -11 -11 -15 -20 -23 -31 -33
-3 -1 -0 1 -3 -3 -4 -4 -5 -6 -6 -6 -7 -7 -7 -7 -8 -8 -8 -8 -9 -11 -12 -12 -13 -14 -18 -23 -24 -22 -21 -20 -17 -16 -14 -11 -12 -12 -12 -10 -11 -13 -14 -25

GFSCGP_850_dewp_117.txt.gz
Dewpoint
-4 -2 -1 -3 -3 -2 -2 -2 -1 -3 -5 -5 -5 -6 -7 -8 -7 -8 -7 -8 -8 -2 1 4 5 5 4 4 3 4 3 2 2 3 -1 -3 -0 4 11 9 12 12 12 12
-4 -2 -3 -3 -2 -2 -1 -1 -2 -5 -6 -6 -6 -6 -8 -8 -9 -9 -9 -9 -9 2 4 4 4 4 3 3 3 2 3 3 3 3 4 4 2 -1 2 5 8 11 11 13
-1 -3 -5 -4 -3 -2 -2 -2 -3 -4 -4 -4 -3 -3 -6 -7 -9 -9 -9 -10 -8 3 3 3 3 3 2 2 2 2 1 1 1 0 -0 -1 -1 2 2 -0 4 7 10 10
1 -2 -2 -2 -2 -4 -2 -3 -2 -2 2 3 -2 3 -1 -3 -6 -7 -8 -0 2 2 2 2 1 1 1 1 1 1 0 1 0 -1 -1 -0 0 -0 -1 -2 0 -0 4 7
1 0 0 1 -0 -3 -2 -0 -4 -4 -0 2 0 2 -1 -5 -5 -3 2 2 2 1 1 1 0 0 0 0 0 -1 -1 -1 -1 -1 -1 -0 -0 -0 -1 -0 -1 -3 -1 1
-0 -3 -2 -1 -2 -2 -0 -1 -3 -3 0 4 1 1 0 -3 -2 5 4 2 1 0 -0 -0 -0 -0 -0 -1 -2 -2 -2 -2 -2 -2 -1 -0 0 0 0 -0 0 0 -1 -3
-1 -1 -2 -2 -0 0 1 -1 3 4 3 2 -2 0 -2 6 5 5 3 0 -1 -1 -1 -1 -1 -1 -1 -2 -2 -3 -3 -3 -2 -2 -1 -0 0 1 2 2 2 2 1 0
0 2 -2 -0 -0 2 1 -1 4 6 5 3 1 4 7 6 4 4 1 -2 -2 -3 -3 -2 -2 -2 -2 -3 -3 -3 -2 -2 -2 -1 -0 0 1 2 2 2 3 3 3 3
-1 1 -3 -3 -4 -1 -1 -0 -2 3 3 4 2 5 5 4 4 3 3 2 1 -0 -0 -2 -2 -2 -2 -3 -3 -3 -3 -2 -2 -1 -0 1 1 2 2 2 3 3 3 3
-2 1 1 0 -6 -6 -4 -6 3 5 6 5 1 1 7 6 5 4 2 -1 -3 -3 -3 -3 -2 -2 -3 -3 -3 -3 -3 -2 -2 -2 -0 1 1 2 2 2 3 3 3 4
-1 0 2 0 -0 -3 -4 -4 -4 2 3 5 5 3 4 5 4 2 -0 -3 -3 -3 -3 -3 -3 -3 -3 -3 -3 -3 -3 -3 -3 -2 -1 0 1 1 1 2 2 3 3 4
-0 3 5 3 -1 -3 -4 -2 -3 1 -1 0 1 1 4 4 3 0 -3 -3 -3 -3 -3 -3 -3 -3 -3 -3 -4 -4 -4 -4 -4 -3 -2 -2 -1 -1 -0 1 1 2 4 6
-0 2 3 2 1 -0 1 -4 -3 -2 -0 1 3 2 2 1 -1 -1 -2 -3 -3 -3 -3 -3 -4 -4 -4 -4 -4 -5 -5 -5 -5 -5 -4 -3 -2 -1 -1 0 0 2 3 5
-1 2 2 2 2 0 -1 -3 -5 -3 1 -1 -1 -3 -3 1 0 -2 -3 -3 -4 -4 -4 -4 -4 -4 -5 -5 -5 -6 -6 -6 -6 -5 -5 -5 -4 -3 -2 -1 0 1 2 3
-2 -1 -1 -2 -3 -3 -0 -2 -6 -4 -3 -1 -3 -1 -2 -2 -1 -2 -3 -3 -4 -4 -4 -4 -5 -5 -5 -5 -5 -6 -6 -6 -6 -6 -6 -6 -5 -4 -3 -2 -1 -1 0 0
-3 1 -3 -2 -4 -5 -5 -8 -9 -9 -8 -8 -9 -6 0 -1 -2 -3 -3 -4 -4 -4 -5 -5 -6 -6 -6 -6 -6 -6 -6 -6 -6 -6 -6 -6 -6 -6 -6 -4 -2 -1 -1 -1
-1 -0 -1 -0 -6 -6 -5 -7 -6 -9 -3 -3 -1 1 -1 -2 -3 -3 -4 -4 -4 -5 -6 -6 -6 -6 -6 -6 -5 -5 -5 -5 -5 -6 -6 -6 -6 -6 -6 -5 -4 -3 -4 -3
-0 -1 -1 -0 -5 -2 -1 -3 -3 -3 -1 -1 -0 -1 -2 -3 -4 -4 -5 -5 -6 -7 -7 -7 -6 -6 -6 -5 -5 -5 -5 -5 -5 -5 -6 -6 -6 -6 -5 -5 -5 -5 -4 -4
-4 -2 -1 -1 -1 -4 -3 -1 -2 -2 -1 -2 -2 -1 -3 -4 -5 -5 -5 -6 -7 -7 -7 -7 -6 -6 -6 -5 -5 -5 -5 -5 -5 -5 -5 -5 -5 -5 -5 -5 -5 -5 -4 -4
-6 -6 -2 -1 -1 -4 1 -2 -4 -3 -2 -4 -4 -3 -2 -4 -2 -6 -6 -7 -7 -7 -7 -7 -7 -7 -8 -14 -15 -18 -20 -22 -23 -24 -22 -10 -6 -4 -4 -5 -4 -4 -4 -4
-3 -3 -3 -2 -2 0 -2 -3 -4 -1 -4 -5 -4 -3 -2 -3 -5 -6 -7 -6 -6 -7 -7 -8 -10 -12 -10 -11 -15 -16 -14 -13 -13 -15 -26 -29 -26 -26 -27 -18 -10 -5 -4 -4
-2 -1 -2 -3 -2 -0 -4 -2 -1 -3 -4 -4 -3 -4 -5 -6 -6 -7 -7 -7 -7 -7 -8 -8 -9 -10 -10 -11 -11 -11 -12 -12 -13 -13 -14 -21 -30 -33 -31 -32 -32 -32 -32 -29
-0 -2 1 -1 -2 -3 -4 -3 -4 -3 -4 -4 -5 -5 -6 -6 -7 -7 -7 -7 -8 -8 -8 -8 -9 -10 -12 -11 -10 -9 -9 -13 -16 -16 -15 -14 -17 -23 -31 -35 -35 -34 -34 -32
-1 -2 -1 -1 -2 -4 -4 -4 -4 -5 -5 -5 -5 -6 -6 -7 -7 -7 -7 -8 -8 -8 -8 -9 -10 -13 -15 -14 -12 -11 -13 -15 -17 -18 -18 -17 -17 -15 -19 -25 -30 -35 -33 -33
-2 -3 -1 -2 -3 -4 -3 -4 -5 -5 -5 -6 -6 -6 -7 -7 -7 -7 -8 -8 -8 -9 -10 -12 -15 -17 -18 -18 -18 -18 -20 -22 -21 -20 -19 -17 -16 -16 -14 -16 -15 -18 -21 -17
-2 -2 0 -1 -4 -3 -3 -5 -5 -6 -6 -6 -7 -7 -7 -7 -8 -8 -8 -8 -9 -10 -12 -15 -18 -20 -18 -21 -21 -20 -18 -18 -18 -18 -16 -13 -13 -12 -12 -12 -12 -12 -17 -26

GFSCGP_850_dewp_120.txt.gz
Dewpoint
-2 -2 -1 -2 -3 -2 -1 -1 -0 -2 -4 -4 -4 -5 -6 -7 -8 -8 -9 -9 -4 -1 4 5 5 5 5 5 3 2 1 -1 -2 -2 -5 -5 -4 -2 3 9 10 7 11 13
-2 -1 -3 -3 -3 -3 -2 -0 0 -2 -4 -4 -5 -4 -6 -7 -6 -6 -7 -9 -1 5 4 4 4 4 3 3 2 1 -0 -1 -2 -3 -3 -2 -3 -2 -0 -1 1 6 7 9
-2 -3 -4 -3 -2 -1 -1 -1 -1 -1 -3 -3 -2 -1 -2 -4 -5 -5 -5 -5 2 4 3 3 3 2 2 1 0 -0 -2 -2 -3 -3 -3 -3 -3 -3 -5 -5 -2 0 1 5
0 -2 -2 -1 -0 -1 0 -4 -2 -1 -2 0 -1 3 -1 -3 -4 -2 2 2 3 2 2 1 1 1 1 1 0 -1 -2 -3 -4 -5 -5 -4 -3 -3 -3 -3 -4 -5 -5 -2
2 -0 0 1 1 -0 1 -1 1 -1 0 -1 -0 2 -1 -4 -4 3 3 2 1 1 1 1 0 0 -0 -1 -2 -4 -5 -6 -6 -6 -7 -7 -5 -3 -3 -3 -3 -3 -4 -3
1 -1 -1 -0 -1 -1 -1 -2 -2 -3 -2 3 -1 1 0 6 6 4 2 0 0 -0 -0 -0 -1 -2 -3 -5 -8 -10 -9 -7 -6 -6 -5 -5 -5 -4 -4 -3 -2 -2 -3 -3
1 0 -3 -2 -0 -1 1 3 6 4 2 2 0 1 5 5 4 3 2 1 -0 -1 -0 -0 -1 -2 -3 -5 -7 -7 -6 -6 -4 -4 -3 -2 -2 -2 -1 -1 -1 -1 -1 -1
1 1 -2 -1 -1 1 3 3 6 6 5 2 -1 1 5 4 3 3 3 2 1 1 -0 -1 -1 -2 -3 -4 -5 -5 -4 -3 -3 -3 -2 -2 -1 -0 0 1 1 1 2 1
0 -0 -3 -4 -3 -1 0 1 0 3 3 4 2 5 5 4 3 2 2 2 2 1 1 -0 -1 -2 -3 -5 -4 -3 -3 -3 -3 -3 -2 -2 -1 -0 1 1 1 2 2 3
-2 -0 0 -0 -5 -6 -1 -2 2 4 6 6 2 1 6 6 3 3 2 2 1 0 -0 -1 -2 -2 -3 -3 -3 -4 -3 -3 -4 -3 -3 -2 -1 -0 0 1 1 2 2 4
-1 -1 1 -0 -1 -2 -4 -3 -3 3 4 5 5 1 3 5 4 3 1 -1 -2 -3 -3 -3 -3 -4 -4 -4 -4 -4 -4 -4 -4 -4 -3 -3 -2 -1 -0 0 1 1 2 3
0 1 3 2 -1 -4 -4 -3 -2 4 3 1 1 -1 4 4 3 0 -3 -3 -3 -3 -3 -4 -4 -4 -4 -4 -4 -5 -5 -5 -5 -5 -4 -4 -3 -2 -1 -0 0 1 2 2
-0 2 2 1 0 -1 1 -2 -3 -0 0 1 2 -0 2 2 2 -2 -3 -3 -3 -4 -4 -4 -4 -4 -4 -5 -5 -6 -6 -5 -5 -5 -5 -5 -4 -4 -3 -2 -1 -0 0 1
-1 1 0 0 1 0 -1 -0 -3 -1 3 3 1 -1 -3 2 0 -2 -2 -3 -4 -4 -4 -5 -5 -6 -5 -6 -6 -5 -5 -6 -6 -5 -6 -6 -6 -6 -5 -4 -3 -2 -2 -1
-2 1 1 -0 -1 -0 3 3 -0 -1 -2 -1 -2 -1 1 -0 -1 -3 -3 -4 -4 -4 -5 -5 -6 -6 -5 -5 -5 -5 -5 -5 -5 -6 -6 -6 -6 -6 -6 -6 -5 -4 -3 -3
-3 0 -3 -2 -3 -4 -1 -2 -5 -7 -7 -6 -8 2 -2 -2 -3 -3 -4 -4 -4 -4 -6 -6 -7 -6 -6 -5 -5 -5 -5 -5 -5 -5 -5 -5 -6 -6 -6 -6 -6 -5 -4 -3
-1 -1 -1 0 -6 -8 -5 -5 -7 -8 -0 -2 -2 1 -2 -2 -3 -3 -4 -4 -5 -6 -7 -7 -6 -5 -5 -5 -5 -5 -5 -4 -4 -4 -4 -5 -5 -6 -6 -6 -6 -6 -6 -5
-1 -1 -0 1 -5 -0 -2 -3 -3 -0 -1 -0 0 -1 -3 -3 -4 -5 -5 -6 -6 -7 -7 -6 -6 -6 -6 -5 -5 -6 -9 -10 -9 -5 -4 -4 -5 -5 -5 -6 -6 -6 -6 -6
-2 -2 -1 -1 -0 -3 -2 -2 -2 -3 -1 -3 -1 -3 -4 -4 -5 -5 -6 -7 -7 -7 -7 -7 -6 -6 -8 -13 -19 -23 -24 -28 -29 -27 -26 -19 -8 -5 -5 -5 -6 -6 -5 -5
-3 -4 -3 -2 -2 -4 -6 -2 -3 -5 -3 -4 -4 -2 -4 -5 -4 -5 -7 -7 -7 -7 -7 -7 -7 -8 -14 -14 -14 -16 -17 -20 -20 -29 -30 -28 -28 -27 -25 -16 -8 -7 -6 -6
-2 -3 -2 -2 -3 -2 -2 -3 -4 -2 -4 -5 -4 -4 -2 -3 -5 -6 -7 -7 -7 -8 -8 -8 -9 -11 -10 -10 -11 -12 -14 -15 -15 -18 -26 -33 -33 -31 -30 -29 -29 -29 -28 -27
-4 -2 -2 -3 -4 -2 -4 -3 -1 -3 -4 -4 -4 -4 -3 -4 -6 -6 -6 -7 -7 -7 -8 -8 -9 -9 -9 -9 -11 -13 -13 -14 -16 -18 -20 -24 -27 -33 -34 -34 -33 -32 -31 -30
-1 -3 -2 -2 -4 -4 -4 -3 -4 -4 -4 -4 -5 -5 -6 -7 -7 -7 -7 -7 -7 -8 -8 -8 -10 -10 -9 -9 -12 -18 -15 -17 -19 -21 -22 -21 -22 -27 -31 -34 -32 -30 -32 -31
-1 -2 -3 -2 -3 -3 -3 -4 -5 -5 -5 -4 -5 -6 -6 -7 -7 -7 -7 -8 -8 -8 -8 -9 -12 -13 -14 -12 -16 -18 -16 -15 -19 -20 -19 -19 -22 -22 -24 -25 -31 -31 -24 -20
-2 -2 -2 -2 -3 -3 -4 -5 -5 -5 -5 -5 -5 -6 -7 -7 -7 -8 -8 -8 -9 -9 -9 -12 -15 -17 -16 -19 -18 -15 -15 -17 -17 -19 -20 -20 -20 -20 -18 -18 -20 -25 -20 -15
-3 -1 -2 -4 -4 -4 -4 -5 -6 -6 -6 -6 -6 -6 -7 -7 -8 -8 -8 -9 -9 -10 -12 -16 -16 -18 -20 -21 -18 -14 -14 -17 -21 -21 -19 -17 -16 -15 -14 -15 -16 -17 -20 -21

GFSCGP_850_dewp_123.txt.gz
Dewpoint
-1 0 0 -1 -2 -2 -1 -0 0 -2 -3 -2 -2 -3 -5 -7 -6 -5 -5 -5 2 5 6 6 5 5 5 5 4 4 3 2 0 -2 -3 -4 -4 -3 -1 1 4 5 8 7
-1 0 -1 -3 -3 -2 -2 -1 -1 -1 -2 -2 -2 -2 -4 -5 -5 -4 -4 -3 4 5 5 4 4 3 3 2 1 1 -1 -2 -3 -4 -5 -5 -5 -5 -5 -4 -4 -2 1 2
0 -1 -3 -2 -2 -1 -1 -0 -0 0 -3 -3 -2 -1 -3 -4 -4 -1 2 -0 4 4 3 2 1 1 1 0 -0 -1 -1 -2 -3 -4 -5 -5 -5 -5 -5 -5 -5 -5 -5 -4
-1 -4 -3 -3 -1 -2 0 -2 -2 1 1 3 -3 4 -1 -3 2 2 2 2 2 1 1 0 0 0 -1 -2 -3 -5 -6 -6 -7 -7 -9 -10 -11 -12 -12 -11 -10 -8 -6 -5
2 0 1 1 0 -0 1 0 1 1 1 -0 -0 2 -1 4 5 2 1 1 1 0 -0 -1 -1 -2 -4 -6 -8 -9 -8 -6 -7 -8 -10 -12 -11 -12 -13 -11 -12 -14 -12 -9
0 -1 -1 -0 -1 -1 -1 0 0 -0 -1 5 1 0 1 5 5 2 0 0 -0 -0 -0 -1 -2 -4 -4 -6 -9 -10 -10 -7 -6 -6 -6 -4 -5 -7 -8 -6 -6 -7 -8 -9
1 1 -0 -1 1 -1 -0 1 6 5 3 3 -1 0 3 4 3 2 1 1 1 1 1 1 -2 -1 -1 -3 -6 -8 -7 -6 -4 -4 -3 -4 -3 -3 -3 -3 -3 -2 -3 -2
1 1 -2 -3 -1 1 2 2 5 6 5 2 -0 1 3 4 2 2 2 2 2 2 2 2 2 1 0 -1 -2 -4 -3 -3 -3 -3 -4 -3 -3 -3 -2 -2 -1 -0 0 1
1 0 -3 -3 -2 -1 0 4 2 3 2 4 1 3 4 3 3 2 3 3 2 2 1 0 -0 -1 -2 -3 -3 -3 -3 -2 -3 -3 -4 -3 -3 -3 -2 -1 -1 0 0 1
-2 0 -1 -1 -5 -5 -1 -1 2 3 6 6 2 2 3 5 4 2 3 3 2 1 -0 -1 -2 -4 -4 -4 -4 -4 -4 -4 -4 -4 -4 -4 -3 -3 -3 -2 -1 -1 0 0
-3 -1 0 -1 -1 -1 -4 -2 -1 2 3 5 4 2 2 4 3 3 2 1 1 -1 -3 -3 -4 -4 -4 -5 -5 -5 -5 -5 -5 -5 -5 -4 -4 -4 -3 -3 -3 -2 -1 -0
-0 2 3 2 -1 -4 -5 -3 -1 2 2 2 1 -0 -2 3 2 2 1 -1 -2 -3 -3 -4 -5 -4 -4 -5 -5 -5 -5 -5 -5 -5 -5 -5 -5 -4 -5 -4 -4 -2 -2 -1
1 2 4 3 -0 -1 0 -1 -2 0 1 1 3 1 3 3 2 -0 -2 -3 -3 -4 -4 -5 -5 -5 -5 -5 -5 -5 -5 -5 -5 -6 -6 -6 -6 -6 -6 -5 -5 -4 -2 -2
-1 0 0 1 -0 -0 1 0 -2 -0 3 2 2 0 -0 3 -0 -2 -3 -4 -4 -4 -5 -5 -5 -5 -5 -5 -5 -5 -5 -5 -5 -5 -6 -6 -6 -6 -6 -6 -5 -5 -4 -4
-0 1 1 0 -1 1 2 2 2 2 2 3 0 -0 1 1 -1 -3 -4 -4 -4 -5 -5 -6 -6 -5 -5 -5 -5 -5 -4 -4 -4 -5 -5 -5 -5 -5 -6 -6 -6 -5 -5 -5
-2 1 -3 -2 -3 -3 1 1 1 1 0 -1 -2 1 -2 -3 -3 -3 -4 -4 -4 -5 -6 -6 -6 -6 -6 -6 -5 -5 -5 -4 -4 -4 -4 -4 -4 -5 -5 -5 -6 -6 -6 -6
-1 1 2 3 -3 -6 -3 -2 -1 -2 -2 -2 -3 -2 -2 -2 -3 -4 -4 -4 -5 -6 -7 -7 -7 -7 -7 -7 -12 -22 -23 -22 -16 -8 -4 -4 -4 -4 -4 -4 -4 -4 -5 -5
-0 1 2 2 -4 0 -2 -3 -1 -1 -1 -0 -0 -1 -3 -3 -4 -4 -5 -5 -6 -6 -7 -7 -7 -8 -11 -13 -16 -23 -29 -30 -29 -30 -29 -24 -12 -6 -5 -4 -4 -4 -5 -5
-0 1 2 1 -0 -3 -2 -2 -3 -3 -3 -3 -1 -3 -4 -4 -5 -5 -6 -6 -6 -7 -8 -8 -9 -10 -11 -13 -16 -20 -24 -29 -32 -31 -31 -30 -30 -31 -29 -25 -17 -10 -5 -6
-1 -2 -1 -2 -1 -3 -6 -2 -4 -6 -3 -4 -3 -3 -4 -5 -4 -7 -6 -7 -8 -8 -8 -8 -9 -10 -13 -12 -15 -17 -19 -22 -24 -31 -33 -32 -33 -33 -30 -27 -26 -28 -29 -27
1 -1 0 -1 -2 -2 -3 -3 -4 -3 -5 -4 -4 -3 -3 -5 -5 -6 -7 -7 -8 -8 -8 -8 -8 -9 -10 -10 -12 -16 -15 -15 -18 -23 -26 -33 -34 -33 -32 -31 -30 -28 -29 -30
-1 -0 -0 -2 -3 -1 -3 -3 -2 -5 -4 -5 -5 -5 -4 -3 -5 -6 -7 -8 -8 -8 -8 -8 -8 -8 -9 -9 -13 -15 -15 -15 -19 -21 -23 -26 -29 -34 -32 -30 -29 -30 -31 -29
-4 -3 -3 -3 -3 -4 -3 -3 -4 -3 -4 -4 -5 -5 -4 -5 -6 -7 -7 -7 -8 -8 -8 -9 -9 -8 -9 -9 -12 -15 -14 -17 -20 -22 -23 -23 -24 -26 -28 -31 -29 -25 -23 -26
-1 -3 -2 -2 -3 -4 -4 -4 -5 -5 -5 -5 -5 -6 -6 -7 -7 -7 -7 -8 -8 -8 -9 -9 -9 -10 -10 -12 -15 -14 -17 -19 -22 -23 -21 -20 -22 -23 -24 -26 -26 -25 -19 -19
-2 -2 -2 -2 -3 -3 -4 -5 -5 -5 -5 -5 -6 -6 -6 -7 -7 -7 -8 -8 -8 -9 -9 -12 -13 -13 -13 -13 -14 -18 -20 -21 -22 -19 -19 -20 -21 -21 -21 -21 -22 -21 -16 -14
-3 -2 -2 -3 -4 -4 -4 -5 -5 -5 -5 -5 -6 -6 -7 -7 -7 -8 -8 -8 -9 -9 -12 -17 -17 -17 -15 -14 -15 -18 -21 -21 -19 -19 -18 -19 -19 -20 -20 -20 -20 -21 -18 -15

GFSCGP_850_dewp_126.txt.gz
Dewpoint
1 2 3 3 -1 -2 -2 -1 0 -1 -3 -2 -2 -2 -3 -5 -5 -5 -4 -4 5 4 4 4 4 3 3 3 3 2 2 1 1 0 -0 -1 -1 -2 -2 -1 -1 -0 2 5
-1 2 1 -2 -2 -2 -1 -1 -1 -2 -3 -2 -2 -1 -3 -4 -2 2 3 4 3 2 2 2 1 1 1 0 -1 -1 -2 -2 -3 -3 -3 -4 -4 -4 -4 -4 -4 -4 -4 -4
2 0 -2 -2 -2 -1 -1 -1 -1 -0 -2 -2 -1 0 -2 1 1 2 2 2 2 1 0 -0 -1 -2 -3 -4 -6 -6 -6 -6 -7 -7 -7 -7 -7 -6 -7 -6 -7 -6 -6 -5
-2 -3 -3 -2 -2 -2 -0 -2 -2 -1 2 4 -2 4 0 3 2 1 1 1 0 -0 -1 -2 -3 -5 -7 -7 -8 -9 -10 -9 -9 -9 -10 -9 -8 -9 -9 -10 -12 -12 -12 -11
1 1 0 -1 -2 -2 -1 -1 1 1 2 0 0 2 1 4 3 1 0 -0 -0 -1 -2 -4 -3 -1 -1 -1 -2 -5 -7 -8 -8 -7 -9 -8 -7 -6 -6 -7 -9 -9 -8 -8
-0 -1 -1 -0 -1 -1 -1 1 1 -0 0 5 3 2 0 4 3 2 1 1 1 1 2 1 1 0 -1 0 -1 -2 -3 -4 -6 -8 -9 -6 -6 -5 -5 -6 -7 -7 -6 -6
1 1 -0 -1 1 -0 0 2 5 5 4 5 -1 1 -0 4 2 1 1 1 2 2 2 2 2 3 1 0 1 0 -4 -4 -5 -5 -6 -4 -4 -4 -4 -3 -3 -4 -4 -4
1 1 -0 -2 1 1 1 2 5 6 5 2 0 2 0 3 2 1 1 2 2 2 2 2 2 0 -1 -3 -3 -3 -3 -4 -5 -4 -4 -4 -3 -4 -3 -3 -3 -2 -2 -2
1 1 -3 -2 -2 -1 1 3 1 4 2 4 2 1 3 3 2 2 2 2 2 2 1 1 -1 -2 -5 -4 -4 -4 -4 -4 -4 -4 -4 -3 -3 -4 -3 -3 -3 -3 -2 -1
-1 1 -2 -2 -5 -5 -1 -1 2 2 5 5 2 1 2 4 3 3 2 2 2 2 1 -1 -3 -4 -5 -4 -4 -4 -5 -4 -5 -5 -5 -5 -5 -5 -6 -5 -5 -4 -4 -3
-2 -1 0 -1 -1 -2 -2 1 1 2 2 4 4 1 -0 3 3 3 2 3 2 1 -0 -3 -4 -5 -4 -5 -5 -5 -5 -5 -5 -5 -5 -5 -5 -5 -6 -6 -5 -5 -4 -3
-1 -0 2 1 -1 -3 -4 -0 -0 4 3 3 2 1 -1 2 2 2 2 2 1 -1 -3 -4 -5 -5 -5 -5 -5 -5 -5 -5 -5 -5 -5 -5 -5 -6 -6 -7 -6 -5 -4 -4
1 3 5 2 -1 -1 -0 -2 -2 0 0 1 4 1 4 3 3 2 -1 -2 -2 -3 -4 -5 -5 -5 -5 -5 -5 -5 -4 -5 -5 -5 -5 -5 -5 -6 -6 -6 -5 -5 -6 -5
1 1 2 2 -0 0 2 1 -2 -0 1 0 0 -0 3 3 2 -2 -3 -2 -3 -4 -5 -5 -5 -5 -5 -5 -5 -4 -4 -4 -4 -4 -4 -5 -5 -5 -6 -6 -6 -6 -6 -6
1 2 1 0 -0 -0 -1 1 1 -0 -1 2 0 1 -1 0 0 -3 -3 -4 -4 -5 -5 -6 -6 -6 -5 -5 -5 -5 -5 -4 -4 -4 -4 -4 -5 -5 -5 -5 -5 -6 -6 -6
-1 3 -1 -0 -2 -1 1 1 2 2 1 0 0 1 -2 -2 -3 -3 -4 -4 -4 -5 -5 -6 -6 -6 -6 -6 -7 -14 -19 -23 -18 -9 -5 -4 -4 -4 -5 -5 -5 -5 -5 -5
0 2 3 4 -1 -2 2 1 1 -0 -2 -2 -1 -3 -3 -2 -3 -4 -4 -4 -4 -5 -5 -6 -7 -7 -7 -8 -21 -28 -29 -27 -29 -29 -28 -23 -17 -17 -16 -10 -6 -4 -5 -5
2 2 3 4 -1 2 -2 -3 -2 -1 -2 -1 -1 -2 -3 -3 -4 -4 -4 -5 -5 -5 -6 -7 -7 -7 -11 -18 -18 -25 -30 -30 -29 -30 -30 -29 -27 -27 -28 -29 -28 -27 -21 -13
-0 2 3 3 1 -2 -4 -2 -2 -2 -4 -2 -1 -3 -3 -4 -4 -5 -5 -5 -6 -6 -7 -7 -8 -9 -14 -13 -15 -18 -22 -26 -31 -30 -31 -30 -30 -30 -29 -29 -28 -29 -30 -29
2 1 2 0 1 -2 -6 -2 -4 -6 -3 -3 -2 -3 -4 -5 -3 -9 -6 -6 -7 -8 -8 -8 -9 -9 -9 -9 -10 -12 -15 -19 -23 -28 -29 -28 -29 -30 -32 -32 -30 -27 -29 -27
2 2 2 1 -0 -2 -5 -3 -5 -4 -5 -4 -3 -3 -4 -5 -5 -5 -6 -7 -8 -8 -8 -8 -8 -8 -9 -9 -10 -12 -13 -16 -19 -22 -27 -31 -32 -30 -29 -30 -33 -32 -31 -29
1 2 2 0 1 0 -3 -3 -2 -5 -4 -4 -4 -3 -4 -5 -5 -5 -7 -8 -8 -8 -8 -8 -8 -8 -8 -9 -11 -13 -14 -16 -19 -21 -24 -26 -28 -29 -31 -33 -33 -35 -35 -35
-1 -0 -1 -0 -1 -4 -3 -4 -4 -4 -4 -4 -5 -5 -4 -4 -5 -6 -7 -8 -8 -8 -8 -9 -8 -8 -8 -10 -11 -13 -13 -16 -19 -21 -23 -26 -26 -28 -30 -32 -33 -33 -31 -33
-1 -3 -2 -3 -3 -4 -3 -4 -4 -5 -5 -5 -5 -6 -5 -6 -6 -7 -8 -8 -8 -8 -9 -9 -8 -8 -9 -12 -12 -13 -14 -16 -19 -21 -24 -24 -25 -25 -27 -28 -29 -29 -24 -24
-1 -2 -2 -2 -3 -4 -4 -5 -5 -5 -5 -5 -6 -6 -6 -7 -7 -7 -7 -8 -8 -9 -9 -9 -10 -11 -12 -12 -14 -16 -16 -17 -20 -24 -24 -22 -22 -23 -25 -25 -21 -19 -17 -15
-3 -2 -2 -2 -3 -4 -4 -5 -5 -5 -6 -6 -6 -6 -6 -7 -7 -7 -8 -8 -9 -9 -9 -12 -13 -12 -12 -13 -15 -16 -17 -18 -23 -25 -23 -23 -24 -24 -23 -25 -24 -22 -19 -16

GFSCGP_850_dewp_129.txt.gz
Dewpoint
1 3 4 3 -0 -2 -1 -0 -0 -2 -4 -3 -2 -2 -3 -3 0 2 3 3 2 1 1 1 1 0 -0 -0 -1 -1 -1 -1 -2 -1 -1 0 -0 -1 -1 -1 -0 -0 0 1
-0 4 3 1 0 -0 0 0 -0 -2 -3 -2 -2 -1 -1 1 2 3 4 2 2 1 1 0 -1 -2 -4 -6 -7 -8 -8 -7 -7 -6 -6 -5 -5 -5 -4 -4 -3 -4 -4 -3
2 0 -1 0 -0 0 -0 -0 -0 -1 -2 -2 -0 -0 0 2 2 2 2 1 1 0 -1 -2 -4 -4 -5 -6 -5 -8 -10 -11 -12 -13 -12 -10 -9 -8 -9 -9 -8 -9 -8 -8
0 -1 -2 -1 -1 -1 1 -2 -2 -1 1 3 -1 2 0 2 2 1 1 1 0 -0 -2 -3 -3 -3 -2 -2 -1 -1 -2 -3 -6 -8 -11 -12 -12 -11 -12 -13 -12 -12 -11 -8
-1 1 -1 -0 -1 -3 -1 -2 -0 1 2 2 1 2 1 2 3 2 1 0 -0 -1 -3 -2 -1 -1 -2 -2 -1 -1 -0 -1 -3 -4 -5 -7 -8 -8 -9 -10 -12 -11 -10 -7
-1 -1 -1 -1 -1 -2 -1 0 1 -0 1 4 2 1 1 4 3 1 0 0 0 1 1 2 2 2 2 1 0 -0 -0 -1 -1 -3 -4 -5 -5 -5 -5 -5 -6 -6 -7 -6
0 0 -1 -1 -0 -0 0 2 4 5 5 4 -1 2 0 2 1 1 1 1 1 2 2 2 2 2 -0 -3 -4 -5 -5 -5 -5 -5 -5 -5 -5 -4 -4 -4 -4 -4 -4 -4
1 0 -1 -0 -0 0 2 2 3 5 5 1 -1 2 -1 2 1 1 1 1 2 2 2 2 1 0 -4 -6 -6 -5 -4 -5 -5 -5 -5 -5 -5 -4 -4 -4 -3 -3 -3 -3
2 1 -3 -2 -1 -2 1 3 0 3 2 4 1 -0 1 3 2 2 1 2 2 2 1 1 -1 -3 -5 -5 -5 -5 -5 -5 -5 -5 -5 -5 -5 -4 -4 -4 -4 -4 -3 -3
0 2 -2 -3 -4 -4 0 -0 3 4 5 4 1 0 -0 3 3 2 2 2 2 2 1 0 -2 -4 -5 -5 -5 -5 -5 -5 -5 -5 -5 -5 -5 -5 -5 -5 -5 -5 -4 -4
-1 0 0 -0 -1 -1 1 1 1 2 3 6 3 -1 -1 0 2 2 2 2 2 1 1 -0 -3 -5 -5 -5 -5 -5 -5 -4 -4 -4 -4 -5 -5 -5 -5 -5 -5 -5 -5 -5
-2 0 1 0 -1 -2 -3 0 1 4 3 4 3 1 3 2 1 2 2 2 0 0 0 -2 -4 -5 -5 -5 -5 -4 -4 -4 -4 -4 -4 -5 -5 -5 -5 -6 -6 -6 -6 -6
1 3 1 1 1 1 3 2 -0 1 1 3 5 1 3 2 2 2 1 -1 -1 -0 -2 -4 -5 -5 -5 -5 -5 -4 -4 -4 -4 -4 -4 -5 -5 -5 -5 -6 -6 -6 -6 -6
1 2 3 2 -0 -1 2 1 -2 1 3 2 2 1 1 3 3 1 -0 -0 -1 -3 -4 -5 -5 -5 -5 -5 -5 -5 -5 -6 -5 -4 -4 -4 -5 -5 -5 -5 -5 -6 -6 -7
2 2 2 1 0 0 -0 -0 0 -0 -0 2 1 1 -2 1 2 1 -1 -3 -4 -4 -5 -5 -5 -5 -5 -7 -9 -13 -20 -26 -21 -11 -7 -7 -6 -5 -5 -5 -4 -5 -5 -6
-0 3 0 1 -0 -0 1 0 -0 0 -0 -1 -1 1 -2 -2 -2 -2 -3 -3 -4 -4 -5 -5 -6 -6 -7 -10 -20 -27 -27 -28 -28 -28 -26 -24 -24 -25 -24 -19 -10 -5 -5 -5
1 2 2 3 1 1 2 1 0 -0 -0 0 3 0 -2 -2 -2 -2 -3 -3 -4 -5 -5 -6 -6 -7 -8 -16 -24 -28 -29 -29 -29 -28 -28 -27 -25 -27 -28 -28 -28 -29 -28 -22
2 3 3 3 2 4 -2 -3 -2 -1 -1 -1 -1 -2 -3 -2 -3 -3 -3 -3 -4 -5 -5 -6 -7 -8 -13 -17 -18 -22 -28 -32 -31 -31 -30 -29 -29 -28 -27 -28 -30 -31 -30 -29
0 1 3 3 2 -1 -2 -1 -1 -0 -3 -2 -1 -2 -3 -3 -4 -4 -4 -4 -4 -5 -6 -7 -8 -10 -15 -12 -14 -16 -23 -27 -31 -31 -28 -26 -26 -27 -28 -28 -28 -29 -30 -30
1 1 3 3 3 2 -2 -3 -4 -5 -2 -2 -2 -3 -3 -3 -1 -2 -5 -5 -6 -6 -7 -8 -9 -10 -8 -12 -9 -14 -19 -23 -26 -29 -27 -25 -24 -24 -28 -28 -29 -30 -31 -32
3 3 3 3 3 1 -4 -3 -5 -2 -2 -2 -2 -3 -3 -2 -4 -5 -5 -6 -7 -7 -8 -8 -8 -8 -9 -9 -8 -17 -19 -21 -21 -23 -24 -26 -27 -27 -26 -26 -30 -33 -34 -36
2 3 3 2 2 2 -3 -3 -3 -3 -4 -3 -2 -3 -3 -4 -5 -6 -7 -7 -8 -8 -8 -8 -8 -8 -8 -8 -14 -17 -19 -18 -20 -22 -25 -26 -27 -29 -28 -28 -27 -30 -32 -34
2 2 2 1 1 -3 -3 -3 -5 -5 -4 -5 -3 -3 -4 -5 -5 -6 -7 -8 -8 -8 -8 -8 -8 -8 -8 -12 -14 -16 -17 -17 -19 -22 -24 -25 -26 -29 -30 -30 -28 -28 -28 -29
-2 -3 -1 -2 -2 -3 -3 -4 -4 -4 -5 -5 -5 -5 -4 -4 -5 -7 -8 -8 -8 -8 -9 -9 -8 -8 -9 -12 -13 -15 -16 -17 -20 -22 -22 -25 -28 -28 -29 -26 -25 -22 -19 -18
-1 -3 -1 -3 -3 -4 -3 -4 -4 -5 -5 -5 -6 -6 -5 -5 -6 -7 -8 -8 -8 -9 -9 -9 -9 -9 -12 -13 -14 -15 -17 -19 -21 -22 -23 -25 -26 -27 -27 -28 -23 -16 -17 -15
-1 -1 -2 -1 -3 -4 -3 -4 -5 -5 -5 -6 -6 -6 -6 -6 -7 -8 -8 -8 -9 -9 -9 -9 -10 -12 -13 -15 -15 -16 -18 -20 -21 -23 -24 -26 -26 -26 -27 -27 -26 -26 -22 -16

GFSCGP_850_dewp_132.txt.gz
Dewpoint
-0 -2 -3 -7 -4 -2 -2 -2 -3 -4 -5 -4 -5 -5 -5 -5 -5 -3 0 2 2 1 -0 -1 -1 -1 -2 -3 -3 -2 -3 -3 -3 -3 -3 -3 -1 0 1 -1 -1 -1 -1 -0
0 -1 -4 -1 1 0 -0 -0 -3 -6 -5 -3 -4 -3 -5 -2 -1 1 2 2 2 1 0 -1 -1 -0 -2 -3 -5 -8 -9 -10 -11 -12 -12 -10 -10 -9 -7 -5 -5 -4 -4 -4
-4 -5 -2 1 0 0 -2 -2 -4 -3 -5 -4 -2 -3 -2 0 1 2 2 2 2 2 1 -0 0 -0 -1 -1 -1 -1 -2 -3 -3 -5 -7 -10 -10 -7 -6 -12 -12 -11 -10 -9
-3 -6 -2 -2 -4 -4 -3 -5 -3 -3 -2 -1 -1 -4 -3 -1 0 1 2 2 2 1 0 -0 0 -0 -0 -2 -1 -1 -1 -1 -1 -2 -2 -4 -4 -3 -4 -5 -9 -11 -12 -12
-7 -2 -2 -1 -3 -4 -3 -3 -2 -1 0 0 -1 0 -5 -2 -0 0 1 2 2 1 -0 1 1 2 1 0 0 -0 -3 -5 -4 -4 -4 -4 -4 -3 -3 -3 -4 -5 -7 -7
-7 -2 -2 -5 -4 -3 -2 -1 -1 -0 -0 -0 -3 -2 -7 -1 -2 -2 0 1 1 1 1 2 2 0 -1 -3 -4 -5 -5 -5 -6 -6 -5 -4 -4 -4 -4 -3 -3 -3 -4 -3
-4 -4 -5 -3 -2 -2 -1 0 -1 -1 2 -1 -1 -1 -4 -3 -2 -2 -0 0 1 2 3 3 1 -0 -2 -4 -4 -5 -5 -5 -5 -5 -5 -4 -4 -4 -4 -4 -4 -4 -3 -3
-4 -4 -2 -2 -2 -3 -1 -1 0 -0 -2 -3 -2 -1 -4 -3 -2 -0 0 1 2 3 3 2 0 -1 -3 -3 -4 -5 -5 -4 -5 -5 -4 -4 -4 -5 -5 -5 -5 -5 -5 -5
-2 -3 -4 -2 -2 -3 0 2 -3 1 -1 1 -3 -5 1 2 1 2 1 1 2 3 2 1 -1 -2 -3 -4 -4 -5 -5 -5 -4 -4 -4 -4 -4 -5 -5 -5 -6 -6 -6 -5
-2 -5 -10 -5 -3 -2 -1 -3 1 2 2 0 -5 -5 -3 2 2 2 2 2 2 3 2 0 -2 -3 -4 -4 -4 -5 -5 -4 -4 -4 -4 -5 -5 -5 -5 -6 -6 -5 -5 -5
-3 -1 -6 -1 -2 -5 -1 0 1 0 0 2 1 -3 -3 -4 -3 0 0 1 2 2 1 -1 -2 -4 -4 -4 -4 -5 -4 -4 -4 -4 -4 -5 -5 -5 -5 -5 -5 -6 -6 -6
-8 -6 -3 -6 -6 -2 -2 -1 -1 4 2 4 4 0 -3 -2 -2 -2 -1 1 1 2 -1 -2 -3 -4 -4 -4 -4 -4 -4 -4 -4 -4 -4 -4 -5 -5 -5 -5 -6 -6 -6 -7
-4 -6 -4 -9 -6 -1 1 -0 -0 3 5 5 4 2 -0 -0 -0 0 1 1 2 -0 -2 -3 -4 -4 -4 -5 -6 -6 -5 -5 -6 -5 -5 -5 -5 -5 -5 -5 -5 -6 -6 -8
0 -0 -1 -4 -8 -4 1 -1 -1 2 4 2 0 -2 -4 -1 0 1 1 1 -0 -1 -2 -3 -4 -4 -5 -6 -6 -7 -13 -21 -21 -15 -13 -15 -16 -10 -5 -5 -5 -5 -6 -6
-2 -0 -2 -3 -4 -3 -2 -2 -3 -2 -0 3 1 -2 -4 -5 -3 -1 0 1 -1 -2 -3 -4 -5 -5 -6 -6 -9 -14 -24 -27 -28 -28 -27 -28 -27 -27 -26 -20 -10 -7 -7 -7
-1 -0 -1 -1 -4 -3 -2 -4 -4 -4 -2 -2 -2 -1 -5 -3 -1 1 1 -1 -2 -3 -4 -5 -5 -5 -6 -9 -15 -25 -27 -28 -28 -29 -29 -28 -28 -28 -29 -28 -27 -23 -20 -22
-2 -0 -0 2 -3 -0 0 -3 -4 -4 -5 -3 3 -1 -3 -1 -2 -2 -1 -2 -2 -4 -4 -5 -5 -5 -7 -15 -24 -28 -29 -30 -30 -31 -31 -31 -29 -28 -29 -29 -29 -26 -23 -25
-2 -2 0 2 -1 4 -5 -5 -4 -2 -3 -3 -2 -2 -2 -3 -2 -2 -2 -2 -3 -3 -4 -5 -6 -7 -11 -15 -20 -24 -29 -29 -29 -29 -28 -30 -30 -29 -28 -29 -30 -27 -25 -23
-4 -1 1 2 -2 -4 -5 -2 2 1 -3 -5 -2 -3 -2 -3 -3 -2 -2 -2 -3 -5 -5 -6 -7 -10 -14 -13 -13 -18 -25 -29 -30 -29 -27 -27 -29 -31 -31 -32 -31 -28 -23 -25
-4 -4 1 -2 -1 -1 -0 -3 -4 -4 0 -5 -4 -2 -2 -3 0 0 -3 -4 -5 -5 -6 -7 -9 -12 -10 -11 -7 -14 -21 -25 -27 -27 -27 -27 -27 -31 -32 -32 -30 -26 -22 -22
1 3 3 2 2 -3 -7 -3 -5 1 0 -3 -3 -2 -2 -1 -2 -2 -5 -5 -5 -6 -7 -8 -9 -8 -9 -8 -8 -18 -21 -24 -24 -26 -27 -28 -28 -27 -27 -28 -28 -23 -20 -18
-5 -0 2 3 4 4 -3 -3 -3 -1 -2 -2 -2 -2 -2 -3 -5 -5 -6 -6 -7 -7 -8 -8 -8 -8 -8 -7 -15 -19 -20 -22 -24 -25 -27 -29 -29 -27 -21 -15 -15 -17 -14 -12
2 1 1 0 -1 -1 -3 -1 -2 -3 -3 -2 -1 -1 -2 -4 -5 -6 -7 -7 -8 -8 -8 -8 -8 -8 -8 -10 -15 -18 -20 -21 -23 -25 -27 -28 -28 -21 -15 -12 -12 -11 -12 -12
-2 -3 1 1 1 -3 -2 -2 -3 -3 -3 -3 -2 -2 -3 -4 -6 -6 -7 -7 -8 -8 -8 -8 -8 -9 -9 -9 -12 -14 -19 -21 -23 -25 -26 -26 -28 -24 -13 -12 -12 -13 -13 -12
-2 -2 -2 -0 -1 -2 -1 -2 -3 -3 -3 -4 -5 -5 -4 -4 -6 -7 -7 -7 -7 -8 -8 -8 -8 -8 -9 -9 -11 -14 -17 -17 -20 -23 -22 -19 -19 -14 -14 -17 -14 -13 -14 -15
-2 -1 0 0 -2 -2 -3 -3 -3 -3 -5 -5 -6 -5 -5 -5 -7 -7 -7 -7 -8 -8 -8 -8 -8 -9 -10 -11 -15 -17 -16 -18 -20 -23 -23 -20 -16 -14 -14 -13 -14 -23 -24 -20

GFSCGP_850_dewp_135.txt.gz
Dewpoint
-1 -2 -4 -7 -7 -6 -4 -4 -7 -9 -9 -6 -5 -5 -9 -9 -8 -6 -6 -1 1 0 0 1 1 1 1 0 -0 -2 -3 -5 -6 -2 -2 -1 -0 1 1 1 -3 -3 -3 -3
-3 -0 -6 -9 -3 -2 -4 -4 -4 -6 -8 -6 -6 -6 -7 -8 -7 -4 -3 -0 1 0 0 1 1 2 1 1 -0 -1 -2 -3 -4 -4 -1 -1 -1 -1 -1 -1 -1 -3 -8 -8
-4 -5 -5 -4 -3 -2 -4 -4 -4 -4 -7 -7 -6 -5 -6 -6 -3 -1 -0 -0 1 1 1 1 1 1 1 1 1 0 -1 -1 -2 -2 -1 -1 -0 -1 -1 -1 -1 -3 -5 -9
-7 -8 -7 -4 -4 -7 -6 -8 -6 -4 -4 -4 -3 -0 -5 -4 -2 -1 -0 1 1 1 1 1 1 2 2 2 1 0 -1 -4 -7 -6 -4 -4 -1 -1 -1 -1 -1 -1 -0 -3
-7 -7 -5 -5 -6 -6 -5 -4 -4 -5 -3 -3 -4 -3 -5 -6 -2 -2 -1 0 1 1 1 1 2 2 0 -0 -1 -1 -1 -2 -1 -3 -4 -1 -1 -1 -2 -1 -2 -1 -2 -1
-7 -5 -5 -6 -6 -6 -6 -3 -3 -2 -1 1 -4 -5 -6 -6 -4 -5 -3 -0 1 1 1 2 2 1 -1 -1 -1 -1 -2 -2 -3 -5 -4 -3 -3 -2 -2 -2 -2 -2 -2 -2
-5 -7 -7 -6 -5 -4 -3 -2 -1 -2 -1 0 -4 -3 -5 -6 -5 -6 -3 -1 0 1 2 3 2 0 -1 -2 -2 -2 -2 -3 -4 -4 -4 -4 -3 -3 -3 -3 -3 -3 -3 -3
-5 -3 -6 -7 -5 -7 -3 -3 -0 1 -1 -4 -6 -1 -5 -6 -5 -4 -3 -2 -0 1 3 3 1 -0 -2 -2 -1 -2 -2 -2 -4 -4 -3 -3 -4 -4 -3 -4 -4 -4 -5 -5
-6 -6 -6 -6 -7 -7 -7 -3 -6 -2 -1 -1 -4 -7 -9 -3 -3 -2 -1 -1 0 2 3 2 1 -1 -2 -2 -1 -2 -2 -2 -4 -4 -3 -3 -4 -4 -4 -5 -5 -6 -6 -6
-6 -3 -5 -7 -5 -6 -5 -9 -2 1 5 1 -4 -6 -5 1 -0 -0 0 0 1 2 3 2 -0 -1 -2 -2 -2 -3 -3 -3 -3 -3 -3 -3 -4 -5 -5 -5 -5 -5 -6 -6
-7 -5 -6 -11 -7 -7 -9 -3 -4 -4 -3 1 0 -3 -7 -2 -3 -0 -1 -1 -0 2 2 1 -1 -2 -2 -2 -2 -2 -2 -3 -4 -3 -3 -4 -5 -5 -5 -5 -5 -5 -6 -7
-8 -5 -6 -9 -12 -9 -4 -1 -3 3 2 -0 4 5 -5 -1 -4 -4 -4 -2 -1 1 2 0 -1 -2 -2 -3 -4 -3 -3 -3 -5 -4 -4 -6 -7 -6 -5 -5 -5 -5 -6 -6
-5 -3 -5 -8 -11 -12 -9 -6 -6 -6 -3 2 4 3 -3 -3 -2 -3 -4 -3 -1 2 1 -1 -2 -2 -3 -4 -5 -4 -5 -5 -5 -8 -6 -11 -14 -17 -12 -7 -5 -6 -5 -6
-2 -6 -6 -7 -11 -10 -5 -2 -2 0 5 5 2 1 -4 -4 0 -0 1 -2 0 2 -1 -2 -2 -2 -4 -5 -6 -7 -8 -10 -10 -13 -23 -26 -28 -27 -26 -19 -11 -8 -8 -7
-3 -0 -4 -6 -7 -7 -6 -7 -8 -6 -5 -1 -2 -1 -2 -3 -4 -3 1 2 1 -0 -1 -2 -2 -3 -4 -5 -7 -8 -9 -13 -13 -22 -29 -30 -29 -30 -30 -28 -15 -11 -10 -12
-7 -2 -3 -5 -9 -8 -7 -9 -9 -8 -8 -7 -6 -5 -8 -9 -5 -3 -2 0 0 -0 -2 -2 -3 -4 -5 -7 -9 -9 -18 -23 -26 -30 -31 -30 -29 -29 -31 -31 -24 -13 -13 -12
-4 -2 -1 0 -4 -4 -3 -5 -7 -8 -8 -7 -2 -6 -8 -7 2 2 -1 -0 -0 -1 -2 -4 -4 -4 -6 -7 -9 -13 -24 -27 -31 -31 -31 -30 -29 -28 -29 -30 -28 -25 -23 -23
-4 -3 -2 0 -3 2 -6 -10 -9 -5 -6 -7 -7 -8 -7 -4 -0 -1 -2 -1 -1 -2 -3 -4 -4 -5 -6 -7 -18 -27 -30 -30 -30 -29 -28 -29 -29 -29 -28 -29 -30 -27 -24 -23
-7 -4 1 1 -1 -5 -7 -7 0 1 -4 -5 -6 -6 -7 -2 -1 -1 -1 -1 -1 -3 -3 -4 -5 -5 -7 -15 -20 -24 -28 -29 -29 -28 -27 -28 -28 -30 -28 -29 -28 -26 -21 -16
-7 -5 -1 -0 -0 1 -1 -9 -10 -5 1 -6 -6 -5 -3 -2 1 1 -2 -2 -2 -3 -4 -5 -6 -9 -11 -10 -12 -19 -25 -27 -28 -27 -27 -26 -27 -26 -28 -25 -27 -21 -13 -12
0 1 2 2 1 -2 -7 -9 -6 -0 -1 -3 -4 -4 -1 -1 -0 -1 -2 -3 -4 -4 -5 -6 -8 -7 -8 -7 -8 -18 -23 -26 -27 -27 -28 -27 -24 -24 -19 -19 -20 -14 -11 -11
-6 -3 1 1 3 3 -6 -3 -1 -1 -2 -2 -2 -1 -1 -2 -3 -3 -4 -5 -6 -6 -7 -7 -7 -7 -8 -7 -12 -19 -23 -24 -26 -27 -29 -27 -24 -18 -13 -11 -10 -11 -11 -11
-0 -2 1 -3 -1 -1 -0 -1 -1 -2 -2 -2 -2 -1 -1 -3 -4 -5 -6 -6 -6 -7 -6 -7 -8 -8 -8 -8 -10 -15 -17 -15 -22 -27 -28 -27 -18 -12 -11 -12 -11 -10 -11 -11
-4 -5 -0 -1 -2 -3 -1 -1 -2 -2 -2 -1 -1 -0 -1 -3 -5 -6 -6 -6 -6 -6 -6 -7 -7 -8 -8 -8 -9 -13 -15 -19 -23 -22 -17 -17 -13 -13 -11 -11 -12 -12 -12 -12
-3 -2 -0 -0 -4 -2 -1 -1 -0 -1 -0 -2 -2 -1 -3 -4 -5 -6 -6 -6 -6 -6 -7 -7 -7 -7 -9 -9 -10 -11 -11 -12 -13 -13 -13 -14 -13 -12 -17 -25 -16 -14 -20 -18
-4 -1 0 2 -2 1 -1 -1 0 -0 -2 -2 -3 -2 -3 -4 -5 -5 -6 -6 -6 -7 -7 -7 -7 -8 -10 -10 -10 -11 -12 -13 -14 -14 -13 -13 -12 -12 -12 -12 -13 -14 -17 -23

GFSCGP_850_dewp_138.txt.gz
Dewpoint
-3 -2 -2 -5 -6 -8 -6 -5 -4 -6 -10 -9 -7 -7 -7 -8 -8 -10 -8 -7 -0 1 1 1 2 2 2 2 1 1 0 -1 -2 -2 -3 -2 -1 -1 0 -0 -1 -4 -6 -7
-4 -2 -4 -6 -8 -5 -3 -2 -5 -8 -8 -7 -7 -6 -8 -8 -8 -9 -8 -3 1 1 0 1 2 2 2 1 1 0 -1 -2 -2 -2 -1 -2 -1 -1 -0 -2 -1 -4 -4 -7
-4 -7 -6 -5 -5 -4 -2 -3 -4 -5 -7 -7 -6 -5 -7 -9 -8 -6 -2 -3 1 1 0 1 2 2 2 2 1 0 -1 -6 -10 -7 -7 -6 -2 -1 -2 -2 -1 -2 -1 -3
-5 -7 -8 -6 -5 -5 -3 -8 -9 -5 -4 -2 -7 -3 -6 -7 -4 -2 -2 -2 0 0 1 1 2 2 2 2 -0 -1 -5 -9 -11 -11 -11 -10 -8 -6 -3 -2 -3 -3 -2 -2
-5 -7 -6 -5 -6 -6 -5 -7 -4 -4 -4 -5 -6 -5 -6 -8 -7 -1 -2 -0 0 1 1 1 2 2 0 -0 -1 -1 -3 -7 -10 -9 -9 -8 -7 -5 -4 -3 -4 -4 -3 -2
-8 -11 -8 -7 -7 -7 -7 -5 -5 -4 -3 1 -3 -3 -4 -6 -5 -2 -2 -1 0 1 1 2 2 1 -1 -0 -1 -1 -2 -6 -7 -7 -7 -6 -5 -5 -4 -4 -4 -4 -3 -3
-10 -10 -8 -6 -6 -6 -6 -4 -2 -2 -0 2 -5 -4 -4 -6 -6 -4 -2 -1 0 1 1 2 2 0 -1 -1 -1 -2 -2 -6 -6 -6 -6 -5 -5 -5 -4 -4 -4 -4 -4 -4
-4 -2 -7 -8 -7 -7 -4 -3 2 2 2 -2 -6 -3 -4 -7 -6 -5 -3 -2 -0 1 2 3 2 1 -1 -1 -1 -2 -3 -5 -5 -5 -5 -5 -5 -5 -4 -4 -4 -5 -4 -5
-7 -6 -9 -9 -7 -8 -7 -5 -8 -1 -2 0 -3 -6 -8 -6 -5 -3 -4 -3 -0 1 3 3 2 0 -1 -1 -1 -2 -2 -4 -4 -4 -3 -4 -4 -5 -4 -4 -5 -5 -5 -6
-5 -4 -6 -6 -7 -7 -6 -7 -1 1 4 3 -2 -4 -3 2 1 -1 -1 -2 -1 1 3 2 1 -0 -1 -1 -1 -2 -3 -4 -4 -3 -3 -3 -4 -5 -5 -4 -4 -5 -5 -6
-6 -4 -4 -6 -1 -4 -7 -4 -4 -3 -1 2 1 -2 1 2 0 1 2 4 4 2 3 2 0 -1 -2 -2 -1 -2 -3 -4 -4 -3 -4 -5 -6 -6 -6 -5 -5 -5 -5 -6
-7 -5 -2 -5 -7 -10 -8 -4 -3 4 3 5 5 5 -1 1 0 1 1 2 2 4 4 2 -0 -1 -2 -2 -2 -2 -2 -4 -5 -5 -4 -7 -9 -12 -15 -12 -8 -6 -6 -6
-2 -3 -4 -7 -11 -13 -11 -10 -9 -5 -1 1 3 -0 -6 -5 -1 0 3 0 1 4 3 1 -1 -1 -2 -3 -3 -3 -4 -4 -6 -8 -7 -10 -15 -16 -19 -20 -17 -15 -14 -11
-4 -4 -6 -3 -7 -9 -7 -10 -8 -4 3 3 2 1 -1 0 -2 1 0 0 3 4 4 0 -1 -1 -2 -4 -5 -6 -7 -8 -8 -12 -16 -19 -22 -24 -27 -23 -18 -16 -18 -24
-5 -3 -7 -9 -11 -11 -9 -9 -8 -6 -5 1 -1 -3 -4 -7 -6 -1 -1 0 4 4 2 0 -1 -2 -4 -5 -6 -7 -8 -9 -9 -18 -26 -23 -25 -29 -29 -26 -21 -21 -23 -28
-3 -1 -3 -4 -6 -8 -7 -10 -11 -11 -10 -9 -9 -8 -9 -10 -10 -5 -2 -1 4 4 0 -1 -2 -3 -4 -6 -7 -7 -9 -12 -16 -26 -29 -27 -28 -29 -29 -25 -25 -26 -27 -29
-1 1 -0 -1 -5 -5 0 -3 -6 -9 -9 -8 -4 -5 -7 -7 -2 -1 1 1 4 3 0 -2 -3 -4 -6 -7 -8 -9 -14 -17 -25 -29 -28 -28 -28 -29 -29 -26 -25 -24 -26 -28
-5 -3 -2 1 0 3 -2 -9 -10 -9 -9 -9 -7 -7 -7 -7 -1 0 1 1 3 -1 -2 -3 -4 -4 -5 -7 -8 -16 -19 -26 -27 -27 -27 -28 -29 -30 -27 -26 -24 -20 -21 -23
-6 -4 -0 0 -0 -4 -5 -6 -3 -2 -4 -6 -7 -6 -7 -5 -0 -0 -0 -0 -1 -2 -3 -3 -4 -4 -5 -7 -15 -23 -25 -25 -24 -24 -25 -28 -29 -27 -26 -24 -22 -18 -18 -14
-8 -5 -2 -1 -0 1 -2 -7 -10 -8 -1 -6 -6 -4 -2 -1 3 2 -0 -1 -2 -2 -3 -3 -4 -5 -5 -14 -20 -23 -24 -23 -24 -23 -24 -25 -25 -24 -24 -20 -18 -14 -14 -13
-4 -2 -0 -0 1 -1 -5 -7 -8 -1 -0 -3 -4 -2 0 2 0 -0 -1 -2 -2 -3 -3 -4 -5 -5 -9 -10 -11 -19 -24 -24 -25 -25 -23 -21 -20 -17 -14 -15 -16 -12 -10 -11
-5 -3 1 2 3 3 -4 -3 -1 1 -0 -1 -1 -2 -2 -1 -1 -1 -2 -3 -3 -4 -4 -5 -6 -8 -7 -7 -7 -18 -23 -24 -25 -25 -24 -19 -16 -14 -11 -10 -10 -11 -10 -11
0 -2 -1 -2 -1 -1 -2 -1 -4 -0 -1 -2 -2 -0 -1 -1 -2 -2 -3 -4 -5 -6 -6 -7 -7 -7 -7 -7 -11 -18 -21 -22 -24 -24 -21 -17 -14 -12 -13 -15 -13 -12 -12 -12
-2 -4 1 0 -2 -4 -4 -1 -0 -1 -1 -1 -1 0 -1 -2 -3 -4 -5 -5 -6 -6 -6 -7 -7 -7 -8 -8 -8 -14 -14 -14 -17 -15 -14 -15 -17 -12 -11 -15 -25 -27 -24 -21
-1 1 1 1 -1 1 -1 1 -1 -0 -0 0 0 1 -1 -3 -4 -5 -5 -6 -6 -6 -6 -7 -7 -7 -7 -8 -8 -9 -10 -11 -11 -13 -14 -14 -15 -18 -22 -22 -17 -20 -25 -29
-4 -1 1 2 -2 1 0 0 -1 0 1 -1 -1 -1 -2 -4 -4 -5 -5 -6 -6 -6 -7 -7 -7 -7 -7 -9 -10 -11 -12 -13 -14 -13 -13 -12 -12 -11 -11 -12 -13 -14 -15 -16